Regional Weather Roundup
Issued by NWS Albany, NY

Home | Current Version | Previous Version | Graphics & Text | Print | Product List | Glossary Off
Versions: 1 2 3 4 5 6 7 8 9 10 11 12 13 14 15 16 17 18 19 20 21 22 23 24 25 26 27

000
ASUS41 KALY 270810
RWRALY

NEW YORK STATE HOURLY WEATHER ROUNDUP
NATIONAL WEATHER SERVICE ALBANY NY
400 AM EDT THU JUL 27 2017

NOTE: "FAIR" INDICATES FEW OR NO CLOUDS BELOW 12,000 FEET WITH NO
SIGNIFICANT WEATHER AND/OR NO OBSTRUCTIONS TO VISIBILITY.

NYZ032-033-038>043-046>054-057>066-NYZ062>081-082-084-270900-
EAST


CITY           SKY/WX    TMP DP  RH WIND       PRES   REMARKS
ALBANY         LGT RAIN  65  55  70 S9        30.02S
GLENS FALLS    LGT RAIN  63  61  93 S3        30.00F
POUGHKEEPSIE   PTCLDY    60  56  86 CALM      30.05F
NEWBURGH       CLOUDY    61  59  94 CALM      30.07F
MONTGOMERY     PTCLDY    59  57  93 CALM      30.05F
WHITE PLAINS   PTCLDY    63  58  83 W3        30.07F
ISLIP          PTCLDY    61  58  90 CALM      30.07F
NEW YORK CITY  MOCLDY    68  62  81 SW8       30.07F
CENTRAL PARK   PTCLDY    66  60  81 VRB3      30.11S
$$

NYZ005>009-017-018-044>046-055-056-270900-
CENTRAL


CITY           SKY/WX    TMP DP  RH WIND       PRES   REMARKS
FULTON         CLOUDY    68  62  81 S7        29.96F
SYRACUSE       LGT RAIN  67  62  84 SW8       29.96F
ROME           CLOUDY    66  62  87 CALM      29.98F
ELMIRA         CLOUDY    64  62  93 CALM      30.00F
BINGHAMTON     CLOUDY    62  60  93 S6        30.04F
$$

NYZ026>034-041>043-087-270900-
NORTH


CITY           SKY/WX    TMP DP  RH WIND       PRES   REMARKS
WATERTOWN      CLOUDY    67  64  90 S6        29.94F
FORT DRUM      NOT AVBL
OGDENSBURG     CLOUDY    64  63  96 S6        29.91F
MASSENA        CLOUDY    64  63  96 CALM      29.92F
SARANAC LAKE   CLOUDY    61  61 100 SW6       29.98S FOG
PLATTSBURGH    LGT RAIN  64  62  93 S5        29.94F
$$

NYZ001>004-010>016-019>021-085-270900-
WEST


CITY           SKY/WX    TMP DP  RH WIND       PRES   REMARKS
NIAGARA FALLS  LGT RAIN  70  64  81 SW5       29.96F
BUFFALO        LGT RAIN  67  62  84 S6        29.96F
DUNKIRK        CLOUDY    70  62  76 S9        29.97F
JAMESTOWN      CLOUDY    63  57  82 S6        30.02F
WELLSVILLE     CLOUDY    66  59  78 SW7       30.04F
ROCHESTER      LGT RAIN  67  65  93 SW5       29.96F
PENN YAN       LGT RAIN  67  60  78 S5        30.00F
$$

             KEY
       WCI = WIND CHILL INDEX
       VSB = VISIBILITY
       HX  = HEAT INDEX
$$




USA.gov is the U.S. government's official web portal to all federal, state and local government web resources and services.